CW4482 Weather Reports


Display with metric or nautical units.
time (UTC)temp
F
wind
direction
speed
MPH
gust
MPH
rain 1hr
in
rain 24hr
in
rain mn
in
humidity
%
barometer
mb
20260503013025 66 14 0.0 0.0 0.00 0.11 0.00 74 1018.7
20260503011550 67 14 0.0 0.0 0.00 0.11 0.00 74 1018.7
20260503010022 68 14 0.0 2.0 0.00 0.11 0.00 72 1018.5
20260503004546 69 14 1.0 4.0 0.00 0.26 0.00 64 1018.3
20260503003029 71 11 2.0 8.0 0.00 0.26 0.00 64 1018.1
20260503001519 72 24 3.0 8.0 0.00 0.26 0.00 61 1018.0
20260503000012 73 44 3.0 7.0 0.00 0.26 0.00 57 1017.9
20260502234541 73 15 2.0 6.0 0.00 0.43 0.00 61 1017.8
20260502233017 74 348 4.0 9.0 0.00 0.43 0.00 50 1017.7
20260502231520 75 50 4.0 10.0 0.00 0.43 0.00 50 1017.7
20260502230042 77 17 3.0 6.0 0.00 0.43 0.00 48 1017.5
20260502224527 77 355 3.0 10.0 0.00 0.54 0.00 47 1017.5
20260502223028 77 53 3.0 10.0 0.00 0.54 0.00 50 1017.7
20260502221524 78 52 2.0 8.0 0.00 0.54 0.00 51 1017.9
20260502220021 77 33 2.0 7.0 0.00 0.54 0.00 48 1017.8
20260502214521 78 41 3.0 10.0 0.00 0.78 0.00 57 1018.0
20260502213021 77 18 2.0 6.0 0.00 0.78 0.00 55 1017.9
20260502211525 78 38 3.0 8.0 0.00 0.78 0.00 47 1018.0
20260502210015 78 332 5.0 13.0 0.00 0.78 0.00 46 1018.1
20260502204513 77 347 3.0 10.0 0.00 0.99 0.00 46 1018.2
20260502203013 77 23 3.0 10.0 0.00 0.99 0.00 50 1018.4
20260502201513 76 294 2.0 10.0 0.00 0.99 0.00 58 1018.4
20260502200013 76 36 3.0 10.0 0.00 0.99 0.00 58 1018.6
20260502194511 75 343 2.0 11.0 0.00 1.22 0.00 50 1018.8
20260502193036 74 24 3.0 9.0 0.00 1.22 0.00 53 1019.1
20260502191514 74 22 3.0 9.0 0.00 1.22 0.00 57 1019.1
20260502190011 74 298 2.0 10.0 0.00 1.22 0.00 55 1019.2
20260502184514 73 332 4.0 12.0 0.00 1.88 0.00 52 1019.4
20260502181527 72 44 2.0 9.0 0.00 1.88 0.00 63 1019.7
20260502163015 67 11 4.0 11.0 0.00 2.19 0.00 71 1020.2
20260502161528 66 34 4.0 12.0 0.00 2.19 0.00 70 1020.1
20260502151527 62 318 2.0 10.0 0.00 2.19 0.00 80 1019.9
20260502123013 53 336 0.0 2.0 0.00 2.36 0.00 94 1018.3
20260502121521 53 336 0.0 2.0 0.00 2.36 0.00 94 1018.3
20260502114524 53 336 0.0 2.0 0.00 2.37 0.00 94 1017.8
20260502113029 53 343 1.0 3.0 0.00 2.37 0.00 94 1017.7
20260502111551 53 344 1.0 3.0 0.00 2.37 0.00 94 1017.5
20260502110024 53 342 1.0 3.0 0.00 2.37 0.00 94 1017.5
20260502104524 53 360 1.0 3.0 0.00 2.55 0.00 93 1017.3
20260502103015 53 360 1.0 3.0 0.00 2.55 0.00 94 1017.1
20260502101512 53 355 1.0 3.0 0.00 2.55 0.00 94 1016.7
20260502071516 55 49 2.0 6.0 0.00 3.44 0.00 95 1015.7
20260502070036 55 20 1.0 6.0 0.00 3.44 0.00 95 1015.7
20260502064515 55 17 1.0 10.0 0.00 3.51 0.00 95 1015.3
20260502063017 55 339 1.0 10.0 0.00 3.51 0.00 95 1015.4
20260502061515 55 355 2.0 5.0 0.00 3.51 0.00 95 1015.2
20260502060012 55 14 2.0 6.0 0.00 3.51 0.00 95 1015.3
20260502054511 55 51 2.0 14.0 0.00 3.88 0.00 95 1015.3
20260502053012 56 355 2.0 11.0 0.00 3.88 0.00 95 1015.5
20260502051513 56 28 2.0 9.0 0.00 3.88 0.00 95 1015.4
20260502050034 56 26 2.0 13.0 0.00 3.88 0.00 95 1015.5
20260502044534 56 320 2.0 6.0 0.00 3.88 3.88 95 1015.4
20260502043038 56 38 2.0 10.0 0.00 3.88 3.88 95 1015.3
20260502041514 56 355 2.0 9.0 0.02 3.88 3.88 95 1015.5
20260502040015 56 82 1.0 5.0 0.02 3.88 3.88 95 1015.2
20260502034512 56 34 2.0 6.0 0.02 3.89 3.88 95 1015.1
20260502033011 56 30 2.0 9.0 0.04 3.89 3.88 95 1014.7
20260502031530 56 22 5.0 11.0 0.02 3.87 3.86 95 1014.3
20260502030047 57 14 2.0 10.0 0.03 3.87 3.86 95 1014.0
20260502024527 57 335 2.0 6.0 0.03 3.89 3.86 95 1013.9
20260502023024 57 19 2.0 6.0 0.02 3.87 3.84 95 1013.9
20260502021524 57 348 2.0 5.0 0.04 3.87 3.84 95 1014.0
20260502020012 57 346 2.0 7.0 0.05 3.86 3.83 95 1013.4
20260502014558 57 54 2.0 12.0 0.09 3.86 3.83 95 1012.9